Regional Weather Roundup
Issued by NWS

Home | Current Version | Previous Version | Text Only | Print | Product List | Glossary Off
Versions: 1 2 3 4 5 6 7 8 9 10 11 12 13 14 15 16 17 18 19 20 21 22 23 24 25 26 27 28 29 30 31 32 33 34 35 36 37 38 39 40 41 42 43 44 45 46 47 48 49 50

000
ASUS43 KDTX 092001
RWRMI
MICHIGAN HOURLY REGIONAL WEATHER ROUNDUP
NATIONAL WEATHER SERVICE DETROIT/PONTIAC MI
300 PM EST TUE FEB 09 2016

NOTE: "FAIR" INDICATES FEW OR NO CLOUDS BELOW 12,000 FEET WITH NO
SIGNIFICANT WEATHER AND/OR OBSTRUCTION TO VISIBILITY.

MIZ047>049-052>055-059>063-066>070-074>076-081>083-092100-
SOUTHEAST LOWER MICHIGAN

CITY           SKY/WX    TMP DP  RH WIND       PRES   REMARKS
ADRIAN         CLOUDY    27  20  75 NW14G23   29.63S WCI  16
ALMA           CLOUDY    29  23  78 W16       29.62R WCI  17
ANN ARBOR      LGT SNOW  27  22  81 NW14G22   29.60R WCI  16
BAD AXE        LGT SNOW  29  27  92 NW14G22   29.52R VSB 1   WCI  18
DETROIT CITY   LGT SNOW  29  23  78 W10       29.58R WCI  20
DETROIT        LGT SNOW  29  23  78 W18       29.60R WCI  16
FLINT          LGT SNOW  29  22  75 W21       29.58S WCI  16
GROSSE ILE     CLOUDY    30  25  80 W14       29.58R HAZE    WCI  20
HILLSDALE      CLOUDY    26  19  73 NW20      29.62R WCI  13
HOWELL         CLOUDY    28  23  83 W14G20    29.59S FOG     WCI  16

CITY           SKY/WX    TMP DP  RH WIND       PRES   REMARKS
JACKSON        CLOUDY    26  18  71 NW14G25   29.62R WCI  14
LAMBERTVILLE   CLOUDY    28  23  81 W10       29.63R WCI  18
LANSING        CLOUDY    27  19  72 W16       29.63R WCI  15
LAPEER         LGT SNOW  28  25  89 W9G20     29.55S WCI  19
MASON          CLOUDY    26  20  77 W14G23    29.62S WCI  15
MONROE         CLOUDY    30  24  79 W13       29.61R WCI  20
MT. CLEMENS    LGT SNOW  28  24  85 W17G23    29.54R FOG     WCI  16
PONTIAC        LGT SNOW  27  23  85 W20       29.55S FOG     WCI  13
PORT HOPE        N/A     30  29  96 NW23G31   29.48S WCI  17
PORT HURON     LGT SNOW  28  25  86 W10G16    29.53R WCI  19
TRI CITIES     LGT SNOW  29  23  78 W12       29.59R VSB 1   WCI  19
MIDLAND        FLURRIES  29  21  71 NW17G23   29.59R WCI  17
TROY           LGT SNOW  30  26  84 W13G18    29.58S WCI  20
SAGINAW HB     SNOW      30  28  93 W16G23    29.58R VSB 1/2 WCI  19
$$
MIZ043>046-050>051-056>058-064>065-071>073-077>080-092100-
SOUTHWEST LOWER MICHIGAN

CITY           SKY/WX    TMP DP  RH WIND       PRES   REMARKS
BATTLE CREEK   CLOUDY    26  18  71 NW17G28   29.66R WCI  13
BENTON HARBOR  LGT SNOW  24  18  77 NW14G22   29.76R VSB 1   WCI  12
BIG RAPIDS     CLOUDY    25  19  78 NW9       29.64R WCI  16
COLDWATER      CLOUDY    27  21  76 NW14      29.66R WCI  16
FREMONT        FLURRIES  25  18  76 NW17      29.68S WCI  11
HOLLAND        LGT SNOW  26  19  74 NW13      29.71S WCI  15
GRAND RAPIDS   FLURRIES  27  18  69 W15       29.67R WCI  15
IONIA          CLOUDY    27  20  73 W17G23    29.63S WCI  14
KALAMAZOO      CLOUDY    26  18  71 NW16      29.68R WCI  14
LUDINGTON      LGT SNOW  23  19  83 NW15G23   29.73R WCI  10
MARSHALL       CLOUDY    27  19  71 W14G21    29.64R WCI  15
MOUNT PLEASANT CLOUDY    28  19  69 NW15G21   29.61S WCI  17
MUSKEGON       FLURRIES  26  17  68 NW18G24   29.72R WCI  13
SOUTH HAVEN    LGT SNOW  26  20  79 NW14G21   29.73S WCI  14
$$
MIZ016>042-092100-
NORTHERN LOWER MICHIGAN

CITY           SKY/WX    TMP DP  RH WIND       PRES   REMARKS
ALPENA         MIX PCPN  28  23  81 NW9G21    29.56R WCI  19
BEAVER ISLAND  FLURRIES  23  17  76 N13G20    29.67R WCI  12
BELLAIRE       LGT SNOW  27  22  81 NW9G18    29.65S WCI  18
CADILLAC       CLOUDY    24  17  77 NW14G20   29.60S WCI  11
CHARLEVOIX     LGT SNOW  26  21  82 NW12      29.68R WCI  15
FRANKFORT      FLURRIES  24  17  73 N12G21    29.70S WCI  13
GAYLORD        FLURRIES  25  18  74 NW9G18    29.57R WCI  15
GRAYLING       LGT SNOW  26  19  76 NW14G23   29.59R WCI  14
HARBOR SPRINGS LGT SNOW  24  19  80 NW13      29.63S WCI  12
HOUGHTON LAKE  LGT SNOW  25  18  74 NW21G30   29.58S WCI  11
MANISTEE       CLOUDY    25  16  68 NW13G23   29.71R WCI  13
OSCODA         FLURRIES  30  26  86 NW15G22   29.53R WCI  19
PELLSTON       LGT SNOW  22  17  81 NW17      29.63R WCI   8
ROGERS CITY    LGT SNOW  28  24  85 W12G17    29.58R WCI  17
TRAVERSE CITY  FLURRIES  26  18  71 NW13G22   29.66S WCI  15
$$
MIZ007>008-015-092100-
EASTERN UPPER MICHIGAN

CITY           SKY/WX    TMP DP  RH WIND       PRES   REMARKS
KINROSS        CLOUDY    23  19  86 NW16      29.60R WCI  10
MACKINAC ISLAN LGT SNOW  24  19  83 NW12G18   29.61R WCI  13
NEWBERRY       LGT SNOW  18  14  83 NW13G24   29.66R WCI   5
S. S. MARIE    CLOUDY    24  17  74 NW13      29.60R WCI  12
$$
MIZ004>006-011>014-085-092100-
CENTRAL UPPER MICHIGAN

CITY           SKY/WX    TMP DP  RH WIND       PRES   REMARKS
MANISTIQUE     LGT SNOW  21  13  72 N20G25    29.69S WCI   5
ESCANABA       CLOUDY    19  10  68 N15G23    29.76R WCI   5
MENOMINEE      CLOUDY    18   5  57 N16G25    29.79S WCI   3
SAWYER-GWINN   SNOW      12   9  85 N25G35    29.75R VSB 1/2 WCI  -8
$$
MIZ001>003-009>011-084-092100-
WESTERN UPPER MICHIGAN

CITY           SKY/WX    TMP DP  RH WIND       PRES   REMARKS
IRON MOUNTAIN  LGT SNOW  13   4  67 N21G28    29.79R WCI  -5
HOUGHTON       LGT SNOW  11   4  73 N16       29.88R VSB 1   WCI  -6
COPPER HARBOR    N/A     15  12  88 NE33G43   29.87R WCI  -6
IRONWOOD       CLOUDY     9   5  85 NW14G21   29.92S WCI  -8
$$

ABBREVIATIONS USED IN REMARKS
   TC - TEMPERATURE IN CELSIUS
  WCI - WIND CHILL INDEX
   HX - HEAT INDEX
  VSB - VISIBILITY




USA.gov is the U.S. government's official web portal to all federal, state and local government web resources and services.